GW3385 Weather Reports


time (UTC)temp
F
wind
direction
speed
knots
gust
knots
rain 1hr
in
rain 24hr
in
rain mn
in
humidity
%
barometer
mb
20260503032551 58 201 0.9 5.2 0.00 0.00 0.00 90 1010.5
20260503032051 58 229 1.7 6.1 0.00 0.00 0.00 90 1010.4
20260503031554 58 215 1.7 6.1 0.00 0.00 0.00 90 1010.2
20260503031051 58 281 0.9 7.0 0.00 0.00 0.00 90 1010.1
20260503030555 58 242 3.5 7.8 0.00 0.00 0.00 90 1010.1
20260503030055 58 234 3.5 7.8 0.00 0.00 0.00 90 1010.0
20260503025551 59 188 0.9 7.8 0.00 0.00 0.00 90 1010.0
20260503025051 59 284 3.5 8.7 0.00 0.00 0.00 89 1009.9
20260503024554 59 269 4.3 8.7 0.00 0.00 0.00 90 1009.9
20260503024056 59 192 2.6 8.7 0.00 0.00 0.00 89 1009.8
20260503023551 59 256 3.5 8.7 0.00 0.00 0.00 89 1009.9
20260503023054 59 251 3.5 9.6 0.00 0.00 0.00 89 1009.7
20260503022554 59 181 5.2 9.6 0.00 0.00 0.00 88 1009.7
20260503022052 59 179 3.5 8.7 0.00 0.00 0.00 88 1009.7
20260503021553 59 191 4.3 7.8 0.00 0.00 0.00 88 1009.7
20260503021051 59 284 2.6 8.7 0.00 0.00 0.00 89 1009.7
20260503020554 59 277 5.2 10.4 0.00 0.00 0.00 88 1009.8
20260503020055 59 285 7.0 10.4 0.00 0.00 0.00 87 1009.7
20260503015551 60 279 3.5 8.7 0.00 0.00 0.00 86 1009.7
20260503015051 60 170 4.3 8.7 0.00 0.00 0.00 86 1009.9
20260503014610 60 251 3.5 9.6 0.00 0.00 0.00 85 1009.8
20260503014051 61 200 4.3 9.6 0.00 0.00 0.00 84 1009.7
20260503013554 61 242 3.5 7.8 0.00 0.00 0.00 84 1009.7
20260503013056 61 296 3.5 7.8 0.00 0.00 0.00 83 1009.6
20260503012553 61 192 2.6 7.8 0.00 0.00 0.00 84 1009.6
20260503012054 61 221 3.5 10.4 0.00 0.00 0.00 83 1009.7
20260503011557 61 226 5.2 10.4 0.00 0.00 0.00 83 1009.7
20260503011051 62 207 3.5 9.6 0.00 0.00 0.00 83 1009.6
20260503010553 62 175 3.5 9.6 0.00 0.00 0.00 83 1009.6
20260503010057 61 261 3.5 11.3 0.00 0.00 0.00 84 1009.5
20260503005552 62 301 6.1 11.3 0.00 0.00 0.00 83 1009.4
20260503005055 62 300 3.5 9.6 0.00 0.00 0.00 83 1009.4
20260503004552 62 266 3.5 11.3 0.00 0.00 0.00 84 1009.4
20260503004051 62 278 5.2 11.3 0.00 0.00 0.00 83 1009.4
20260503003551 62 275 4.3 9.6 0.00 0.00 0.00 82 1009.6
20260503003106 62 311 6.1 10.4 0.00 0.00 0.00 81 1009.6
20260503002551 63 211 3.5 10.4 0.00 0.00 0.00 81 1009.6
20260503002051 63 213 6.1 10.4 0.00 0.00 0.00 81 1009.6
20260503001556 63 200 4.3 9.6 0.00 0.00 0.00 81 1009.5
20260503001051 63 245 3.5 8.7 0.00 0.00 0.00 80 1009.7
20260503000552 64 159 3.5 8.7 0.00 0.00 0.00 79 1009.6
20260503000056 63 213 2.6 12.2 0.00 0.00 0.00 80 1009.5
20260502235551 63 218 2.6 12.2 0.00 0.00 0.00 80 1009.6
20260502235051 63 298 6.1 12.2 0.00 0.00 0.00 80 1009.7
20260502234557 64 209 4.3 9.6 0.00 0.00 0.00 79 1009.6
20260502234051 64 221 4.3 11.3 0.00 0.00 0.00 80 1009.7
20260502233550 63 207 5.2 11.3 0.00 0.00 0.00 80 1009.5
20260502233102 64 165 3.5 8.7 0.00 0.00 0.00 80 1009.7
20260502232551 64 147 3.5 8.7 0.00 0.00 0.00 79 1009.8
20260502232051 63 225 3.5 8.7 0.00 0.00 0.00 81 1009.8
20260502231606 63 202 4.3 10.4 0.00 0.00 0.00 81 1009.9
20260502231052 63 242 7.0 10.4 0.00 0.00 0.00 82 1009.9
20260502230552 63 198 6.1 10.4 0.00 0.00 0.00 82 1009.9
20260502230055 63 269 5.2 11.3 0.00 0.00 0.00 82 1009.9
20260502225554 63 267 5.2 11.3 0.00 0.00 0.00 83 1010.0
20260502225052 63 231 5.2 10.4 0.00 0.00 0.00 83 1010.2
20260502224555 63 267 3.5 10.4 0.00 0.00 0.00 82 1010.3
20260502224051 63 191 5.2 10.4 0.00 0.00 0.00 82 1010.5
20260502223551 62 175 5.2 10.4 0.00 0.00 0.00 83 1010.8
20260502223055 62 190 4.3 11.3 0.00 0.00 0.00 82 1010.9
20260502222551 62 150 5.2 11.3 0.00 0.00 0.00 83 1011.0
20260502222056 62 269 5.2 11.3 0.00 0.00 0.00 83 1011.1
20260502221552 63 284 4.3 11.3 0.00 0.00 0.00 83 1011.2
20260502221055 63 179 5.2 11.3 0.00 0.00 0.00 82 1011.3
20260502220551 63 218 5.2 13.9 0.00 0.00 0.00 84 1011.4
20260502215551 63 201 5.2 13.0 0.00 0.00 0.00 83 1011.6
20260502215051 63 291 4.3 11.3 0.00 0.00 0.00 83 1011.7
20260502214559 63 177 6.1 13.9 0.00 0.00 0.00 82 1011.7
20260502214051 63 170 6.1 13.9 0.00 0.00 0.00 81 1011.7
20260502213554 63 181 6.1 12.2 0.00 0.00 0.00 81 1011.8
20260502213053 63 186 7.0 12.2 0.00 0.00 0.00 81 1011.9
20260502212551 64 240 4.3 10.4 0.00 0.00 0.00 80 1011.9
20260502212051 64 199 5.2 11.3 0.00 0.00 0.00 80 1012.0
20260502211552 64 198 5.2 12.2 0.00 0.00 0.00 80 1012.0
20260502211054 64 271 5.2 13.0 0.00 0.00 0.00 80 1012.1
20260502210551 64 219 6.1 13.0 0.00 0.00 0.00 81 1012.2
20260502210104 65 274 7.0 12.2 0.00 0.00 0.00 79 1012.2
20260502205551 65 281 4.3 11.3 0.00 0.00 0.00 78 1012.3
20260502205054 65 133 5.2 11.3 0.00 0.00 0.00 79 1012.3
20260502204555 65 278 5.2 12.2 0.00 0.00 0.00 78 1012.2
20260502204051 65 159 5.2 12.2 0.00 0.00 0.00 78 1012.3
20260502203551 65 188 4.3 11.3 0.00 0.00 0.00 79 1012.2
20260502203055 65 201 3.5 9.6 0.00 0.00 0.00 79 1012.3
20260502202551 65 225 5.2 9.6 0.00 0.00 0.00 79 1012.3
20260502202051 65 193 4.3 9.6 0.00 0.00 0.00 79 1012.4
20260502201603 65 205 3.5 7.0 0.00 0.00 0.00 79 1012.3
20260502201051 65 241 3.5 7.0 0.00 0.00 0.00 79 1012.3
20260502200554 65 247 3.5 7.8 0.00 0.00 0.00 79 1012.3
20260502200105 65 295 3.5 7.8 0.00 0.00 0.00 80 1012.4
20260502195550 65 265 2.6 8.7 0.00 0.00 0.00 80 1012.3
20260502195051 64 225 3.5 8.7 0.00 0.00 0.00 80 1012.5
20260502194619 64 267 3.5 11.3 0.00 0.00 0.00 82 1012.7
20260502194051 64 267 3.5 11.3 0.00 0.00 0.00 82 1012.7
20260502193551 64 260 4.3 9.6 0.00 0.00 0.00 81 1012.7
20260502193101 64 213 4.3 9.6 0.00 0.00 0.00 82 1012.9
20260502192553 63 158 4.3 11.3 0.00 0.00 0.00 82 1012.9
20260502192051 63 231 4.3 11.3 0.00 0.00 0.00 82 1013.0
20260502191600 63 264 5.2 11.3 0.00 0.00 0.00 82 1013.1
20260502191141 63 272 6.1 11.3 0.00 0.00 0.00 82 1013.1
20260502190553 64 213 3.5 8.7 0.00 0.00 0.00 81 1013.1
20260502190106 64 197 3.5 8.7 0.00 0.00 0.00 80 1013.2
20260502185557 64 257 1.7 7.8 0.00 0.00 0.00 81 1013.3
20260502185058 64 182 3.5 7.8 0.00 0.00 0.00 81 1013.6
20260502184600 64 294 1.7 6.1 0.00 0.00 0.00 82 1013.5
20260502184054 63 279 0.0 5.2 0.00 0.00 0.00 84 1013.4
20260502183555 62 86 0.9 5.2 0.00 0.00 0.00 84 1013.6
20260502183054 62 171 0.0 5.2 0.00 0.00 0.00 84 1013.6
20260502182552 62 155 1.7 5.2 0.00 0.00 0.00 83 1013.5
20260502182051 62 231 0.0 3.5 0.00 0.00 0.00 85 1013.6
20260502181556 62 0 0.0 2.6 0.00 0.00 0.00 85 1013.5
20260502181056 62 34 0.9 4.3 0.00 0.00 0.00 86 1013.4
20260502180556 61 0 0.9 4.3 0.00 0.00 0.00 86 1013.6
20260502180122 61 153 0.9 4.3 0.00 0.00 0.00 87 1013.6
20260502164058 59 0 0.0 2.6 0.00 0.00 0.00 90 1014.2
20260502163556 59 283 0.0 3.5 0.00 0.00 0.00 90 1014.1
20260502163057 59 98 0.0 6.1 0.00 0.00 0.00 91 1014.0
20260502162552 58 0 1.7 6.1 0.00 0.00 0.00 91 1014.0
20260502162053 58 99 0.0 5.2 0.00 0.00 0.00 91 1014.0
20260502161559 58 0 0.0 5.2 0.00 0.00 0.00 91 1014.0
20260502161051 58 140 0.0 3.5 0.00 0.00 0.00 91 1014.1
20260502160556 58 0 0.0 5.2 0.00 0.00 0.00 91 1014.0
20260502152059 57 107 0.0 2.6 0.00 0.00 0.00 93 1013.8
20260502151605 57 0 0.9 2.6 0.00 0.00 0.00 93 1013.6
20260502151059 57 78 0.0 4.3 0.00 0.00 0.00 93 1013.5
20260502150556 57 80 0.9 4.3 0.00 0.00 0.00 93 1013.5
20260502130558 57 0 0.0 1.7 0.00 0.00 0.00 94 1012.8
20260502130104 57 216 0.0 6.1 0.00 0.00 0.00 93 1012.7
20260502123555 57 0 0.9 5.2 0.00 0.00 0.00 93 1012.7
20260502123101 57 291 1.7 5.2 0.00 0.00 0.00 93 1012.7
20260502122551 57 298 2.6 6.1 0.00 0.00 0.00 93 1012.6
20260502122056 57 260 1.7 7.0 0.00 0.00 0.00 93 1012.6
20260502121603 57 296 2.6 7.0 0.00 0.00 0.00 93 1012.5
20260502121053 57 0 0.0 6.1 0.00 0.00 0.00 93 1012.5
20260502120552 57 204 2.6 6.1 0.00 0.00 0.00 93 1012.5
20260502115553 57 254 0.9 3.5 0.00 0.00 0.00 93 1012.6
20260502115052 57 267 1.7 5.2 0.00 0.00 0.00 93 1012.5
20260502114557 57 279 2.6 5.2 0.00 0.00 0.00 93 1012.5
20260502114051 57 0 0.9 4.3 0.00 0.00 0.00 93 1012.3
20260502113553 57 0 0.9 4.3 0.00 0.00 0.00 93 1012.4
20260502113055 57 226 1.7 3.5 0.00 0.00 0.00 93 1012.3
20260502112554 57 0 0.0 4.3 0.00 0.00 0.00 93 1012.3
20260502112057 57 0 0.9 4.3 0.00 0.00 0.00 93 1012.2
20260502111600 57 232 0.9 6.1 0.00 0.00 0.00 93 1012.2
20260502111055 57 302 2.6 6.1 0.00 0.00 0.00 93 1012.2
20260502110552 57 0 0.9 5.2 0.00 0.00 0.00 93 1012.3
20260502110054 57 287 0.9 5.2 0.00 0.00 0.00 93 1012.3
20260502105552 57 288 0.9 2.6 0.00 0.00 0.00 93 1012.1
20260502105051 57 0 0.0 2.6 0.00 0.00 0.00 93 1012.1
20260502104553 57 275 0.0 3.5 0.00 0.00 0.00 93 1012.1
20260502104051 56 266 1.7 3.5 0.00 0.00 0.00 93 1012.1
20260502103551 56 264 0.9 6.1 0.00 0.00 0.00 93 1012.0
20260502103103 57 0 0.0 6.1 0.00 0.00 0.00 93 1012.0
20260502102551 56 205 2.6 6.1 0.00 0.00 0.00 93 1012.1
20260502102052 56 279 0.9 2.6 0.00 0.00 0.00 93 1012.0
20260502101620 56 0 0.0 4.3 0.00 0.00 0.00 93 1012.1
20260502101055 56 0 0.9 4.3 0.00 0.00 0.00 93 1012.1
20260502100555 56 218 0.9 5.2 0.00 0.00 0.00 93 1012.1
20260502100113 56 251 1.7 6.1 0.00 0.00 0.00 92 1012.0
20260502091051 57 279 0.9 3.5 0.00 0.00 0.00 91 1012.2
20260502090552 57 278 0.9 3.5 0.00 0.00 0.00 91 1012.2
20260502080105 57 344 1.7 3.5 0.00 0.00 0.00 90 1012.8
20260502071054 58 0 0.0 1.7 0.00 0.00 0.00 89 1013.1
20260502070555 58 0 0.0 1.7 0.00 0.00 0.00 89 1013.1
20260502070057 58 0 0.0 1.7 0.00 0.00 0.00 89 1013.2
20260502065555 58 0 0.0 2.6 0.00 0.00 0.00 89 1013.2
20260502065055 58 41 0.9 2.6 0.00 0.00 0.00 89 1013.1
20260502064602 58 42 0.9 2.6 0.00 0.00 0.00 89 1013.1
20260502064051 58 57 0.0 1.7 0.00 0.00 0.00 89 1013.1
20260502063551 58 0 0.0 1.7 0.00 0.00 0.00 89 1013.0
20260502063104 58 0 0.0 2.6 0.00 0.00 0.00 89 1013.0
20260502062552 58 0 0.0 5.2 0.00 0.00 0.00 89 1013.0
20260502062052 58 68 1.7 5.2 0.00 0.00 0.00 89 1012.9
20260502061557 58 114 0.9 5.2 0.00 0.00 0.00 89 1012.9
20260502061053 58 107 0.9 4.3 0.00 0.00 0.00 89 1012.9
20260502060555 58 68 1.7 3.5 0.00 0.00 0.00 89 1012.9
20260502060109 58 0 0.9 3.5 0.00 0.00 0.00 89 1012.9
20260502055552 59 53 0.9 3.5 0.00 0.00 0.00 89 1013.0
20260502055051 59 51 0.9 3.5 0.00 0.00 0.00 89 1012.9
20260502054555 58 0 0.0 3.5 0.00 0.00 0.00 89 1012.9
20260502054054 59 24 0.9 3.5 0.00 0.00 0.00 89 1012.9
20260502053551 59 28 0.0 2.6 0.00 0.00 0.00 89 1013.1
20260502053106 59 0 0.9 2.6 0.00 0.00 0.00 88 1013.0
20260502052551 59 97 0.0 3.5 0.00 0.00 0.00 89 1012.9
20260502052057 59 0 0.9 5.2 0.00 0.00 0.00 88 1012.9
20260502051603 59 0 0.9 5.2 0.00 0.00 0.00 88 1012.9
20260502051052 59 82 0.9 3.5 0.00 0.00 0.00 88 1012.8
20260502050553 59 0 0.0 2.6 0.00 0.00 0.00 88 1012.8
20260502050059 59 69 0.0 2.6 0.00 0.00 0.00 88 1012.7
20260502045552 59 0 0.0 3.5 0.00 0.00 0.00 88 1012.5
20260502045053 59 0 0.0 3.5 0.00 0.00 0.00 88 1012.6
20260502044553 59 0 1.7 3.5 0.00 0.00 0.00 87 1012.6
20260502044054 59 74 0.0 3.5 0.00 0.00 0.00 88 1012.6
20260502043554 59 0 0.0 4.3 0.00 0.00 0.00 88 1012.4
20260502043110 59 157 0.0 4.3 0.00 0.00 0.00 87 1012.4
20260502042552 59 224 0.0 3.5 0.00 0.00 0.00 88 1012.4
20260502042052 59 0 0.0 3.5 0.00 0.00 0.00 88 1012.3
20260502041555 59 66 0.9 4.3 0.00 0.00 0.00 87 1012.2
20260502041054 60 164 0.9 5.2 0.00 0.00 0.00 87 1012.2
20260502040551 60 0 0.0 5.2 0.00 0.00 0.00 87 1012.2
20260502040057 60 197 0.0 3.5 0.00 0.00 0.00 88 1012.2
20260502035554 60 182 0.9 3.5 0.00 0.00 0.00 88 1012.2
20260502035054 60 202 0.0 1.7 0.00 0.00 0.00 88 1012.0
20260502034558 59 0 0.0 2.6 0.00 0.00 0.00 88 1011.9
20260502034055 59 0 0.9 3.5 0.00 0.00 0.00 88 1011.8
20260502033556 59 144 0.9 3.5 0.00 0.00 0.00 88 1011.8
20260502033057 59 221 0.9 4.3 0.00 0.00 0.00 88 1011.7